Regional Weather Roundup
Issued by NWS

Home | Current Version | Previous Version | Text Only | Print | Product List | Glossary On
Versions: 1 2 3 4 5 6 7 8 9 10 11 12 13 14 15 16 17 18 19 20 21 22 23 24 25 26 27 28 29 30 31 32 33 34 35 36 37 38 39 40 41 42 43 44 45 46
000
ASUS45 KBOU 200210
RWRCO

WEATHER ROUNDUP FOR COLORADO
NATIONAL WEATHER SERVICE PUEBLO CO
800 PM MDT THU APR 19 2018

NOTE: "FAIR" INDICATES FEW OR NO CLOUDS BELOW 12000 FEET WITH NO
SIGNIFICANT WEATHER AND/OR OBSTRUCTIONS TO VISIBILITY.

COZ001>005-013-030-031-200300-
...NORTHWEST COLORADO...

CITY           SKY/WX    TMP DP  RH WIND       PRES   REMARKS
CRAIG          CLOUDY    55  27  34 S3        29.81R
HAYDEN         CLOUDY    55  27  34 W3        29.83S
MEEKER         CLOUDY    60  20  21 SW18G24   29.83S
RABBIT EARS PA NOT AVBL
STEAMBOAT SPGS FAIR      58  15  18 SE16      29.84R
WALDEN         MOCLDY    46  12  25 SE17      29.96F
$$

COZ006>008-011-200300-
...WEST CENTRAL VALLEYS...

CITY           SKY/WX    TMP DP  RH WIND       PRES   REMARKS
GRAND JUNCTION CLOUDY    65  28  24 S18G38    29.73F
MONTROSE       CLOUDY    61  23  23 SE22G30   29.83F
EAGLE          CLOUDY    62  15  16 S14       29.86R
RIFLE          CLOUDY    65  22  19 S18G26    29.80R
DELTA          NOT AVBL
NUCLA          FAIR      63  16  16 S7        29.76S
$$

COZ017>023-064>068-200300-
...SOUTHWEST COLORADO...

CITY           SKY/WX    TMP DP  RH WIND       PRES   REMARKS
DURANGO        CLOUDY    62  17  17 SE25G40   29.85R
CORTEZ         CLOUDY    68   1   7 S22G35    29.74F
PAGOSA SPRINGS CLOUDY    55  14  19 SE12G23   29.97S
TELLURIDE      CLOUDY    52  14  21 S29G41    29.92F
WOLF CREEK PAS CLOUDY    32  16  51 S24G47    30.16S WCI  19
$$

COZ009-010-012-014-032>034-037-058>063-200300-
...CENTRAL COLORADO...

CITY           SKY/WX    TMP DP  RH WIND       PRES   REMARKS
ASPEN          CLOUDY    58  15  18 S9        29.89R
BUENA VISTA    CLOUDY    50  13  23 CALM      30.01F
COPPER MTN     NOT AVBL
BERTHOUD PASS  FAIR      25  14  63 S14G29    30.16F WCI  13
COTTONWOOD PAS CLOUDY    48  14  25 E5        30.08F
GUNNISON       CLOUDY    52  23  32 SW14      29.97R
KREMMLING      CLOUDY    59   9  13 S25G36    29.93R
LEADVILLE      CLOUDY    40  20  44 SE16G28   30.06S
MONARCH PASS   CLOUDY    34  14  44 S21G29    30.26F WCI  22
SALIDA         CLOUDY    54  13  19 SE5       30.06S
SUNLIGHT       CLOUDY    36  19  51 SW13G21   30.08S
WILKERSON PASS CLOUDY    34   9  35 S9G18     30.19F WCI  26
$$

COZ069>075-200300-
...SAN LUIS VALLEY/SANGRE DE CRISTO MOUNTAINS...

CITY           SKY/WX    TMP DP  RH WIND       PRES   REMARKS
ALAMOSA        CLOUDY    53  16  23 S20G28    30.01S
DEL NORTE      FAIR      53  17  23 SE12G20   30.00S
LA VETA PASS   CLOUDY    39  16  38 S16G24    30.25S
SAGUACHE       NOT AVBL
$$

COZ035-036-038>040-200300-
...NORTHERN COLORADO FRONT RANGE...

CITY           SKY/WX    TMP DP  RH WIND       PRES   REMARKS
DENVER INTL AP MOCLDY    59  17  19 SE29G40   29.96F
DMNS CITY PARK NOT AVBL
AURORA         MOCLDY    57  18  21 SE22G29   29.98S
FRONT RANGE AP MOCLDY    61  16  17 SE29G37   29.99S
ERIE MUNI ARPT FAIR      53  21  28 CALM      30.00F
BOULDER MUN AP FAIR      55  21  26 CALM      29.96F
CENTENNIAL     MOCLDY    58  18  21 SE21G30   29.97F
BROOMFIELD     NOT AVBL
LOVELAND       CLOUDY    53  21  28 E8        29.96F
LONGMONT       FAIR      54  24  31 CALM      29.97S
$$

COZ041-046-047-076>085-087-088-200300-
...PIKES PEAK/PALMER DIVIDE AND SOUTHERN FOOTHILLS...

CITY           SKY/WX    TMP DP  RH WIND       PRES   REMARKS
COLO. SPRINGS  MOCLDY    57  17  21 SE25G35   30.02F
A. F. ACADEMY  MOCLDY    56  14  19 SE29G35   30.00F
SCHRIEVER AFB  NOT AVBL
CHEYENNE MTN   NOT AVBL
ELLICOTT         N/A    N/A N/A N/A S24G32    30.03S
FALCON         FAIR      53  12  20 SE21G30   30.06S
FORT CARSON    MOCLDY    58  16  19 SE22G28   29.98F
LIMON          MOCLDY    53  20  27 SE20G33   30.06R
MONUMENT HILL  MOCLDY    50  16  25 SE26G35   30.05F
CANON CITY     FAIR      63  21  20 NE12      29.90F
WALSENBURG     FAIR      59  21  23 S26G33    29.99F
TRINIDAD       CLOUDY    59  21  23 S16G32    30.06F
$$

COZ042>045-048>051-090-091-200300-
...NORTHEAST COLORADO...

CITY           SKY/WX    TMP DP  RH WIND       PRES   REMARKS
GREELEY ARPT   CLOUDY    59  20  22 E22       29.96S
AKRON          CLOUDY    51  26  37 SE26G37   30.07S
BURLINGTON     CLOUDY    51  26  37 SE22G38   30.13F
WRAY           FAIR      54  27  35 SE20G28   30.14R
YUMA           NOT AVBL
STERLING       NOT AVBL
HOLYOKE        FAIR      54  28  37 SE20G30   30.14S
FORT MORGAN    FAIR      55  19  24 SE21G26   30.04S
$$

COZ086-089-092>099-200300-
...SOUTHEAST COLORADO...

CITY           SKY/WX    TMP DP  RH WIND       PRES   REMARKS
PUEBLO         CLOUDY    65  21  18 S15G32    29.93S
LA JUNTA       MOCLDY    64  19  17 SE21G28   30.04R
LAMAR          PTCLDY    61  20  20 SE17G29   30.08R
SPRINGFIELD      N/A     56  20  24 S24G37    30.11S
$$





USA.gov is the U.S. government's official web portal to all federal, state and local government web resources and services.